Location: Caltech
(34.1382°N, 118.1253°W)
Time: 20:11:15
(UTC-07:00)

USA 129 - Visible Passes

Search period start: 30 September 2016 00:00
Search period end: 10 October 2016 00:00
Orbit: 241 x 674 km, 97.5° (Epoch: 24 April)

Date Brightness Start Highest point End Pass type
(mag) Time Alt. Az. Time Alt. Az. Time Alt. Az.
30 Sep 2.1 06:04:08 10° SSW 06:05:51 30° W 06:07:26 10° NW visible
02 Oct 1.6 05:46:54 10° SSE 05:48:39 60° E 05:50:14 10° N visible
03 Oct 3.2 06:21:58 10° SW 06:22:45 12° W 06:23:31 10° WNW visible
04 Oct 4.5 05:29:56 10° ESE 05:30:56 14° ENE 05:31:30 12° NE visible
05 Oct 1.2 06:03:20 10° S 06:04:50 37° WSW 06:05:16 27° WNW visible
07 Oct 3.4 05:45:09 10° SE 05:45:51 19° ESE 05:45:51 19° ESE visible
08 Oct 3.1 06:19:10 10° SW 06:19:19 11° SW 06:19:19 11° SW visible
